SCP
0 0 0 0 0 0 0 0 0 0 0 0 0 0 0 0 0 0 0 0 1 1 1 1 1 1 1 1 1 1 0 0 0 0 0 0 0 0 0 0 0 0 0 0 0 0 0 0 0
0 0 0 0 0 0 0 0 0 0 0 0 0 0 0 0 0 0 0 0 1 1 1 1 1 1 1 1 1 1 1 0 0 0 0 0 0 0 0 0 0 0 0 0 0 0 0 0 0
0 0 0 0 0 0 0 0 0 0 0 0 0 0 0 0 0 0 0 0 1 1 1 1 1 1 1 1 1 1 1 0 0 0 0 0 0 0 0 0 0 0 0 0 0 0 0 0 0
0 0 0 0 0 0 0 0 0 0 0 0 0 0 0 0 0 0 0 1 1 1 2 1 1 1 1 1 1 1 1 1 1 1 1 1 0 0 0 0 0 0 0 0 0 0 0 0 0
0 0 0 0 0 0 0 0 0 0 0 0 0 0 0 0 0 0 0 1 1 1 2 1 1 1 1 1 1 1 1 1 1 1 1 1 1 0 0 0 0 0 0 0 0 0 0 0 0
0 0 0 0 0 0 0 0 0 0 0 0 0 0 0 0 0 0 0 0 1 1 2 1 1 1 1 1 1 1 1 1 1 1 1 1 1 1 0 0 0 0 0 0 0 0 0 0 0
0 0 0 0 0 0 0 0 0 0 0 0 0 0 0 0 0 0 0 0 0 1 1 1 1 1 1 1 1 1 1 1 1 1 1 1 1 1 0 0 0 0 0 0 0 0 0 0 0
0 0 0 0 0 0 0 0 0 0 0 0 0 0 0 0 0 0 0 0 0 1 1 1 1 1 1 1 1 1 1 1 1 1 1 1 1 1 1 1 1 0 0 0 0 0 0 0 0
0 0 0 0 0 0 0 0 0 0 0 0 0 0 0 0 0 0 0 0 1 1 1 1 1 1 1 1 1 1 1 1 1 1 1 1 1 1 1 1 1 1 1 0 0 1 1 0 0
0 0 0 0 0 0 0 0 0 0 0 0 0 0 0 0 0 0 1 1 1 1 1 1 1 1 1 1 1 1 1 1 1 1 1 1 1 1 1 1 1 1 1 1 1 1 1 0 0
0 0 0 0 0 0 0 0 0 0 0 0 0 0 0 0 0 1 1 1 1 1 1 1 1 1 1 1 1 1 1 1 1 1 1 1 1 1 1 1 1 1 1 1 1 1 1 0 0
0 0 0 0 0 0 0 0 0 0 0 0 0 0 0 0 1 1 1 1 1 1 1 1 1 1 1 1 1 1 1 1 1 1 1 1 1 1 1 1 1 1 1 1 1 1 1 1 0
0 0 0 0 0 0 0 0 0 0 0 0 0 0 0 1 1 1 1 1 1 1 1 1 1 1 2 2 2 1 1 1 1 2 2 1 1 1 1 1 1 1 1 1 1 1 1 1 0
0 0 0 0 0 0 0 0 0 0 0 0 0 0 0 1 1 1 1 1 1 1 1 1 1 1 2 2 2 2 2 1 1 2 2 2 1 1 1 1 1 1 1 1 1 1 1 1 1
0 0 0 0 0 0 0 0 0 0 0 0 0 0 1 1 1 1 1 1 1 1 1 1 1 1 1 2 2 2 2 1 1 2 2 1 1 1 1 1 1 1 1 1 1 1 1 1 1
0 0 0 0 0 0 0 0 0 0 0 0 0 0 1 1 1 1 1 1 1 1 1 1 1 1 1 1 1 1 1 1 1 1 1 1 1 1 1 1 1 1 1 1 1 1 1 1 1
0 0 0 0 0 0 0 0 0 0 0 0 0 1 1 1 1 1 1 1 1 1 1 1 1 1 1 1 1 1 1 1 1 1 1 1 1 1 1 1 1 1 1 1 1 1 1 1 0
0 0 0 0 0 0 0 0 0 0 0 0 1 1 1 1 1 1 1 1 1 1 1 1 1 1 1 1 1 1 1 1 1 1 1 1 1 1 1 1 1 1 1 1 1 1 1 0 0
0 0 0 0 0 0 0 0 0 0 0 1 1 1 1 1 1 1 1 1 1 1 2 2 2 2 1 1 1 1 1 1 1 1 1 1 1 1 0 0 1 1 1 1 1 1 1 0 0
0 0 0 0 0 0 0 0 0 0 0 1 1 1 1 1 1 1 1 1 1 1 2 2 2 2 2 1 1 1 1 1 1 1 1 0 0 0 0 0 1 1 1 1 1 1 1 0 0
0 0 0 0 0 0 0 0 0 0 0 0 1 0 0 1 1 1 1 1 1 1 1 2 2 2 2 1 1 1 1 1 0 0 0 0 0 0 0 0 0 0 0 0 1 1 1 0 0
0 0 0 0 0 0 0 0 0 0 0 0 0 0 0 0 1 1 1 1 1 1 1 1 2 2 1 1 1 1 1 0 0 0 0 0 0 0 0 0 0 0 0 0 0 0 1 0 0
0 0 0 0 0 0 0 0 0 0 0 0 0 0 0 0 0 1 1 1 1 1 1 1 1 1 1 1 1 1 0 0 0 0 0 0 0 0 0 0 0 0 0 0 0 0 1 0 0
0 0 0 0 0 0 0 0 0 0 0 0 0 0 0 0 0 1 1 1 1 1 1 1 1 1 1 1 0 0 0 0 0 0 0 0 0 0 0 0 0 0 0 0 0 1 1 0 0
0 0 0 0 0 0 0 0 0 0 0 0 0 0 0 0 0 1 1 1 1 1 1 1 1 1 0 0 0 0 0 0 0 0 0 0 0 0 0 0 0 0 0 0 0 1 1 0 0
0 0 0 0 0 0 0 0 0 0 0 0 0 0 0 0 0 0 1 1 1 1 0 0 0 0 0 0 0 0 0 0 0 0 0 0 0 0 0 0 0 0 0 0 0 0 0 0 0
0 0 0 0 0 0 0 0 0 0 0 0 0 0 0 0 0 0 0 1 1 1 1 0 0 0 0 0 0 0 0 0 0 0 0 0 0 0 0 0 0 0 0 0 0 0 0 0 0
0 0 0 0 0 0 0 0 0 0 0 0 0 0 0 0 0 0 0 1 1 1 1 0 0 0 0 0 0 0 0 0 0 0 0 0 0 0 0 0 0 0 0 0 0 0 0 0 0
0 0 0 0 0 0 0 0 0 0 0 0 0 0 0 0 0 0 0 1 1 1 0 0 0 0 0 0 0 0 0 0 0 0 0 0 0 0 0 0 0 0 0 0 0 0 0 0 0
0 0 0 0 0 0 0 0 0 0 0 0 0 0 0 0 0 0 0 1 1 0 0 0 0 0 0 0 0 0 0 0 0 0 0 0 0 0 0 0 0 0 0 0 0 0 0 0 0
Wind_Speed
8 11 10 8 7 4 1 5 8 8 10 9 9 10 12 13 9 7 6 8 11 14 14 14 13 12 11 10 10 9 9 9 8 8 8 8 8 7 7 7 6 6 6 6 5 5 4 4 3
10 12 9 7 6 2 3 6 9 10 9 7 9 10 10 12 11 9 8 8 11 14 13 13 13 12 10 10 9 9 9 8 8 7 7 7 7 7 7 6 6 6 5 5 5 5 4 4 3
12 15 8 7 4 1 5 8 8 9 8 8 9 10 9 9 9 8 7 8 10 13 13 14 14 12 10 9 9 9 8 8 8 7 7 7 6 6 6 6 6 6 5 5 5 4 4 4 4
9 8 8 6 2 2 5 7 7 6 7 9 8 8 10 9 9 9 7 7 10 13 14 14 13 12 10 9 9 8 8 8 8 7 7 6 6 6 6 6 6 6 5 5 5 5 5 5 5
10 8 9 5 1 4 6 7 6 6 7 8 9 9 10 10 11 9 7 7 10 12 13 13 13 11 10 9 8 8 7 7 7 7 7 6 6 6 6 6 6 6 6 6 6 6 6 6 6
7 8 7 4 3 4 5 5 5 6 7 7 6 8 10 7 9 7 7 6 9 11 13 12 12 11 10 9 9 8 7 7 7 6 6 6 6 6 7 7 7 6 6 6 7 6 6 7 7
9 9 8 6 3 4 5 5 5 5 7 6 6 6 7 6 6 5 5 6 8 10 12 10 10 9 9 9 9 8 8 8 7 7 6 7 8 8 8 8 8 7 7 7 7 7 7 8 8
8 8 9 5 3 3 3 4 4 5 6 7 6 6 6 5 4 4 5 6 7 8 10 10 9 8 8 7 8 9 8 8 8 8 7 8 9 10 10 9 8 8 8 8 8 8 9 9 9
10 7 6 5 4 3 3 3 3 3 5 7 10 10 8 6 5 4 5 5 6 6 7 7 8 7 7 7 7 8 8 8 8 7 7 6 6 7 7 9 9 9 9 9 9 9 9 9 10
7 4 6 6 5 5 5 5 4 2 5 7 9 10 9 6 5 4 5 5 6 4 3 5 6 5 5 5 5 5 5 6 6 5 6 5 4 4 5 7 9 10 10 9 10 10 10 9 6
5 3 5 6 4 4 4 4 4 5 5 6 8 9 6 5 5 4 5 5 5 4 4 3 3 4 4 3 4 3 3 3 5 4 4 3 3 2 2 2 4 6 7 6 6 7 6 5 4
3 3 3 3 3 2 3 3 4 5 4 6 9 8 6 5 5 5 5 5 5 5 5 4 3 2 2 2 2 2 2 3 2 3 3 2 2 2 2 1 2 3 3 3 3 4 5 5 5
5 4 4 4 3 1 0 2 2 3 5 7 9 8 7 6 6 6 6 5 6 5 5 5 4 3 2 1 1 1 1 2 3 2 2 2 2 2 2 2 1 2 2 3 4 4 4 4 5
5 5 5 6 5 3 1 2 0 2 5 6 7 7 7 6 7 6 5 5 5 5 5 4 4 4 3 1 1 0 1 1 1 2 2 3 2 2 2 2 2 2 2 2 3 3 3 4 4
6 7 8 7 6 4 1 3 2 4 6 6 6 7 7 5 5 5 5 5 4 4 5 4 3 4 3 2 2 1 1 1 0 0 1 2 2 2 2 2 1 2 2 3 2 3 3 3 4
10 11 10 7 7 4 3 2 5 3 4 5 6 6 6 6 5 5 5 5 4 5 4 4 4 4 3 2 2 2 2 2 2 2 1 1 1 1 2 1 2 2 2 2 2 2 2 3 3
10 9 8 4 5 3 2 1 3 2 4 4 5 4 5 5 5 5 5 5 5 4 3 3 3 3 3 2 2 2 2 2 1 1 1 1 0 1 1 2 2 3 2 2 3 1 2 3 3
8 8 7 5 2 2 2 1 2 4 5 4 5 5 5 4 5 5 4 4 5 4 3 2 3 3 2 2 1 1 1 1 1 1 1 1 1 1 1 2 2 3 2 2 2 3 3 3 3
10 10 8 6 2 3 3 3 1 4 4 4 4 4 4 4 4 4 4 5 5 4 3 3 2 2 2 2 1 1 1 1 1 1 1 1 1 1 1 2 2 2 2 2 3 2 3 3 3
10 10 9 4 3 4 5 5 2 4 5 5 4 4 4 4 4 5 4 3 3 3 2 2 2 2 2 1 1 1 1 1 1 1 1 2 2 2 2 1 2 2 2 3 3 2 2 3 2
10 9 8 6 6 7 6 5 2 5 5 4 3 3 5 4 4 4 4 4 3 2 2 2 2 1 2 2 1 1 1 2 1 1 1 2 2 2 2 1 2 2 2 2 3 3 3 2 2
9 8 9 9 9 8 8 6 2 6 6 5 5 5 5 5 4 4 3 4 4 4 3 2 1 1 1 2 2 2 2 2 2 2 2 2 2 2 2 2 2 2 2 3 3 2 2 3 2
11 11 13 12 11 10 8 6 2 7 5 4 3 3 4 5 4 4 4 4 5 4 4 3 2 2 2 2 2 3 3 2 2 2 2 3 2 2 2 2 2 3 2 3 3 2 2 2 2
11 13 14 10 7 7 5 5 2 4 4 3 4 4 4 4 5 5 4 4 3 3 3 3 2 2 3 3 3 3 4 4 4 4 3 3 2 2 2 2 2 3 3 3 3 2 3 2 2
9 9 7 7 5 5 6 4 3 5 5 5 5 5 4 5 5 4 4 4 3 3 3 2 2 2 3 3 4 3 4 4 4 4 3 3 3 2 2 2 3 3 3 4 3 3 3 3 3
8 8 7 8 8 7 6 3 5 6 7 6 6 6 6 7 6 5 4 3 3 3 2 2 2 2 2 3 3 4 4 3 3 3 4 4 3 2 2 3 3 4 4 4 3 2 3 3 3
7 7 9 9 10 7 2 2 3 5 6 6 7 6 6 6 6 5 5 4 3 3 2 2 2 2 2 3 4 4 3 3 4 4 4 3 3 3 3 3 3 3 4 4 3 2 3 2 3
5 6 6 7 7 8 5 3 3 4 5 5 5 6 6 6 6 6 5 4 3 2 1 1 2 2 3 4 4 4 3 4 4 4 4 3 3 3 4 4 3 3 3 3 2 2 3 2 2
7 7 6 6 7 7 7 4 5 6 8 8 7 7 6 6 5 5 5 5 3 3 3 2 2 2 3 4 4 4 4 4 4 4 4 4 3 4 4 4 3 3 3 3 2 3 3 2 2
5 6 6 6 7 7 6 3 5 6 7 6 7 7 7 6 6 6 6 6 5 4 4 3 3 4 3 3 3 4 4 4 4 4 4 4 4 4 4 3 3 3 3 2 2 3 3 2 2
Wind_Direction
239 242 233 245 243 236 344 48 63 54 51 51 47 49 48 49 50 77 83 75 98 115 126 129 125 127 131 134 135 137 138 138 137 142 148 151 153 154 153 151 152 154 157 161 165 171 175 179 180
265 256 241 243 253 258 58 57 56 54 55 52 59 55 56 64 69 88 85 88 107 119 131 132 129 130 134 138 139 140 144 146 146 146 152 158 160 161 162 164 167 171 174 176 182 187 194 198 205
264 260 259 244 248 281 61 58 53 54 58 48 57 54 55 62 67 81 91 107 114 119 126 130 135 136 139 142 146 148 150 153 156 159 162 166 168 169 171 175 181 187 191 191 196 202 208 215 221
261 245 236 252 282 43 65 60 54 46 53 46 56 67 63 60 72 87 103 108 109 117 123 133 139 141 144 148 153 155 157 160 164 168 169 174 177 180 184 189 194 198 203 206 209 212 218 223 226
249 261 256 268 331 65 70 62 59 44 45 45 55 78 75 64 81 95 104 101 106 113 123 133 140 142 147 152 152 153 157 163 167 171 175 179 183 188 194 201 206 209 212 217 218 220 222 226 230
259 267 277 303 342 78 79 67 54 47 56 51 62 86 83 69 79 91 100 105 107 115 122 131 143 147 152 155 155 156 163 165 169 173 181 185 188 196 205 210 214 218 221 226 226 226 227 228 230
267 289 292 303 327 51 67 61 49 50 55 46 56 74 88 73 79 95 103 105 107 115 122 134 144 151 156 159 160 164 170 171 172 177 187 193 198 206 213 216 217 219 223 229 231 230 231 231 232
270 287 293 300 358 38 46 53 59 45 54 62 55 74 88 86 94 102 113 109 106 114 122 135 144 149 157 163 170 174 174 175 177 185 194 204 210 213 216 216 215 220 226 231 234 234 233 234 236
261 268 293 329 6 4 9 9 68 81 76 65 62 77 95 105 105 103 92 85 90 97 114 135 140 149 160 166 165 177 181 182 185 194 203 210 219 219 214 215 209 217 225 232 236 237 237 239 239
249 274 313 348 7 347 8 360 14 25 70 73 79 83 96 97 99 95 82 73 72 72 105 134 138 145 161 162 156 177 188 182 197 198 196 212 226 224 218 202 203 213 223 231 235 241 242 242 238
261 287 316 340 351 4 355 0 22 28 33 60 90 104 104 104 90 75 73 73 70 62 40 53 111 137 146 143 159 180 182 173 202 201 196 214 229 228 225 192 192 209 220 224 228 231 235 236 237
266 277 287 291 309 311 321 353 40 54 51 72 99 116 115 102 88 77 67 62 62 58 38 27 67 99 124 134 157 180 187 177 193 185 198 208 220 237 236 213 201 209 211 206 218 225 225 234 240
271 274 262 272 273 277 349 354 13 69 85 93 106 111 108 104 91 74 64 57 59 56 42 23 19 59 68 89 189 180 205 190 180 175 180 215 218 231 235 234 213 227 220 213 221 228 235 240 243
275 273 254 244 233 218 230 295 298 90 104 97 102 105 97 87 90 79 68 60 52 49 39 31 29 47 50 35 38 340 217 196 169 167 182 209 226 237 242 230 217 241 244 232 232 236 242 244 250
266 260 253 240 221 210 231 334 33 96 103 107 105 102 100 94 87 87 81 69 64 56 49 37 47 58 58 28 6 18 349 1 6 149 171 199 223 253 249 241 219 240 257 254 249 250 250 249 252
258 250 251 238 213 206 218 354 76 104 99 98 96 99 104 96 81 74 79 78 71 62 53 37 30 40 39 29 12 7 13 4 1 13 5 208 195 237 270 257 251 248 246 245 244 239 255 265 268
261 266 265 242 201 236 244 323 113 160 129 102 98 96 95 98 82 70 70 73 74 72 66 48 36 40 34 30 27 8 2 342 341 13 357 20 286 255 276 256 260 253 244 261 270 262 258 266 275
297 299 293 287 232 238 291 293 166 135 118 104 92 93 81 72 76 72 67 74 74 71 65 60 49 44 30 38 26 15 351 325 320 358 355 354 306 288 287 264 259 255 246 257 267 273 258 256 261
287 293 282 273 291 314 302 294 300 119 115 110 107 94 82 66 61 67 66 70 73 67 59 55 44 45 28 25 354 331 320 315 279 243 282 306 291 276 247 276 273 259 243 255 259 261 258 262 262
287 285 283 295 354 319 292 286 260 135 142 124 111 104 87 67 47 48 52 57 81 92 86 86 59 36 6 17 312 276 302 284 257 227 223 245 251 261 251 248 287 278 263 268 260 262 257 264 254
288 292 308 312 304 283 269 268 193 122 107 99 84 91 82 71 50 43 35 32 42 66 68 58 61 41 352 340 302 321 307 287 303 298 270 260 251 247 271 264 271 280 258 263 264 258 252 259 263
301 311 300 292 283 280 278 278 167 135 106 72 44 33 51 52 54 49 22 20 18 33 46 49 62 49 351 319 324 314 297 301 305 298 280 290 278 268 252 251 264 271 268 267 261 254 260 251 263
305 306 291 282 276 276 282 284 94 104 92 67 54 32 38 41 37 35 32 28 18 16 38 36 33 11 346 308 297 294 305 306 302 298 290 275 261 252 255 237 253 265 266 267 266 265 251 241 246
309 304 295 279 278 275 315 317 11 66 73 71 74 49 32 39 30 32 30 32 20 17 26 29 34 11 348 333 325 308 302 300 294 286 285 278 260 249 255 242 252 255 254 257 256 246 246 244 248
322 315 313 315 304 303 326 325 40 84 74 61 61 58 30 31 31 29 23 8 13 17 11 12 28 4 342 334 327 312 299 289 280 282 287 287 282 267 268 270 249 249 246 245 244 241 240 236 240
315 315 316 307 301 303 313 2 71 63 63 53 55 48 36 28 20 11 8 350 355 2 3 2 4 338 331 333 320 306 297 287 288 292 290 285 282 279 268 261 254 253 251 256 246 246 244 240 240
313 319 316 297 290 292 299 108 93 53 52 45 35 37 30 25 12 0 358 351 358 355 357 352 350 326 325 325 315 303 301 300 296 289 276 281 285 282 282 271 262 255 251 254 241 239 248 247 242
308 316 316 314 310 306 313 347 34 41 30 24 15 16 21 18 2 353 348 347 359 0 9 9 352 333 322 319 318 321 315 304 296 290 288 284 283 286 284 266 258 256 251 251 243 242 242 245 250
334 335 333 317 316 315 311 341 36 30 30 11 1 8 18 10 358 345 341 349 8 6 1 4 357 328 320 320 325 325 313 303 296 284 281 279 274 275 275 271 265 265 258 247 243 246 242 243 255
337 333 333 328 326 319 304 322 46 41 27 14 360 3 9 3 355 356 357 6 1 357 355 354 344 328 321 322 325 312 309 305 296 290 281 270 266 266 266 268 270 268 271 259 248 253 252 249 251